Theta_e
300 300 302 303 305 304 304 304 303 302 301 301 300 299 299 300 299 299 299 299 299 298 298 296 295 295 295 295 293 294 297 296
301 301 303 303 304 304 303 302 301 300 299 297 297 297 298 298 298 299 298 298 298 297 296 295 296 294 294 295 293 293 293 293
299 300 302 304 302 303 302 301 300 300 299 298 298 298 297 297 297 298 298 298 297 295 295 294 295 294 294 293 292 291 290 291
298 299 301 302 301 301 301 300 299 299 299 298 298 298 297 295 295 296 297 296 295 294 294 293 294 294 293 292 291 289 287 290
298 298 301 302 302 301 301 300 299 299 299 298 297 294 292 293 294 295 296 296 294 294 293 293 293 293 293 291 291 289 289 287
297 298 301 303 303 301 301 299 299 299 298 298 296 295 294 294 294 294 295 295 293 292 292 290 292 292 292 290 289 289 290 289
298 299 302 303 302 301 300 299 298 299 298 298 296 294 294 292 292 292 293 292 292 291 290 290 290 292 290 289 289 290 290 290
298 299 302 302 300 299 298 297 297 298 297 297 296 295 294 292 292 292 291 289 289 289 289 290 290 290 289 290 290 290 291 290
298 299 302 300 299 298 298 297 296 297 296 296 296 295 293 292 293 292 289 289 290 290 289 290 289 290 290 290 290 291 291 291
299 300 301 300 299 297 297 296 296 296 296 296 295 295 293 292 293 293 291 290 289 289 289 289 288 290 290 291 290 290 291 291
299 300 301 299 298 298 296 296 296 296 296 296 295 294 293 293 293 292 291 290 289 289 288 288 288 289 290 291 290 291 290 291
299 300 300 298 297 297 297 296 296 296 296 295 295 294 293 293 292 292 291 290 289 288 287 287 287 289 289 290 290 290 290 289
300 301 299 297 296 296 296 296 296 295 295 295 294 293 292 292 292 292 292 290 289 288 287 287 287 288 288 289 289 290 289 288
300 299 297 296 295 296 295 295 295 295 294 294 293 292 291 291 291 291 291 290 289 287 285 286 287 288 288 288 289 289 289 289
299 298 297 296 294 295 294 294 295 294 294 293 292 291 291 291 291 291 291 290 288 287 285 285 287 287 287 287 288 288 288 288
298 297 296 296 294 294 294 294 294 294 292 292 291 291 291 291 290 291 290 290 288 287 285 285 286 286 286 286 287 287 287 287
298 297 296 294 293 293 293 293 293 293 292 290 290 290 289 289 290 290 290 289 289 287 285 285 285 285 285 285 285 286 286 285
298 296 295 294 294 294 293 293 293 292 291 290 289 289 288 289 289 289 288 288 289 288 286 285 284 285 284 284 285 286 285 285
298 297 296 295 295 295 294 293 292 291 290 288 288 288 288 288 288 288 288 288 288 287 287 287 285 284 284 284 285 287 285 284
Wind_Speed
2 4 5 6 8 6 6 7 11 13 9 10 9 10 9 10 11 11 16 13 16 14 12 13 11 11 10 10 12 13 14 13
1 3 1 6 7 6 7 9 11 10 9 10 10 10 10 10 11 15 16 14 15 15 12 12 12 11 13 13 12 17 13 11
1 2 2 6 6 6 7 9 11 10 10 9 10 10 10 10 11 12 14 15 15 14 14 12 15 12 13 13 14 11 11 11
2 2 2 5 5 5 7 9 11 10 12 9 9 10 10 10 11 11 13 14 14 14 15 12 14 12 11 13 13 14 10 11
4 3 2 4 3 4 7 9 10 10 11 11 14 12 13 12 11 11 12 14 14 13 15 16 15 12 13 12 13 11 11 11
3 4 2 2 2 5 7 8 9 9 11 11 11 13 12 11 11 14 14 13 13 14 16 14 13 10 10 15 13 12 9 8
5 4 1 2 3 6 6 8 8 9 11 11 13 15 15 13 14 12 11 11 11 14 16 13 14 14 14 12 12 13 12 10
7 6 1 3 4 5 7 8 9 9 11 11 13 15 15 14 15 12 14 11 11 13 14 14 11 13 13 13 12 12 12 10
7 3 2 5 4 5 8 8 8 10 10 11 11 14 10 10 13 12 10 10 11 15 13 13 14 15 14 13 9 10 11 9
7 4 4 5 4 6 6 7 8 9 10 9 11 12 13 12 14 13 11 12 12 14 14 14 15 15 16 14 9 11 11 11
7 4 6 6 4 3 5 5 8 9 9 9 10 12 12 12 12 14 14 13 14 15 15 15 15 16 16 15 11 12 12 9
6 6 7 7 5 3 3 5 7 8 8 9 11 11 12 11 12 13 14 13 14 14 14 15 15 16 16 14 14 13 13 13
6 7 8 7 4 2 4 5 7 8 7 8 10 11 11 12 12 13 14 14 14 14 14 15 15 17 16 16 15 14 14 14
7 9 8 6 4 1 4 6 7 7 7 8 10 11 11 12 12 13 13 13 14 14 14 15 15 17 17 15 15 14 13 14
8 9 8 7 5 3 5 6 7 7 7 9 10 11 11 11 11 12 13 13 14 14 13 14 14 16 17 16 15 15 14 14
9 9 8 7 6 5 5 5 6 6 7 9 10 10 10 10 11 11 12 11 12 13 13 13 14 15 14 17 15 14 15 15
10 10 10 8 6 6 5 5 6 6 7 9 9 9 9 10 11 11 11 12 12 12 13 14 14 12 25 23 18 13 15 15
12 12 10 8 7 7 6 5 5 6 7 8 8 9 9 10 10 11 11 12 12 12 13 13 14 17 26 26 20 12 12 14
13 12 11 10 9 8 6 5 6 6 7 8 8 9 10 10 10 10 11 10 11 10 12 14 13 14 26 27 20 13 12 13
Wind_Direction
21 341 0 345 4 353 358 3 359 349 349 348 349 344 347 345 345 352 345 346 342 335 333 344 332 326 327 328 331 311 313 341
305 355 343 324 12 11 14 6 1 352 355 354 347 341 343 344 348 348 347 348 348 336 347 342 338 335 338 331 332 330 340 329
225 327 295 349 7 21 11 9 3 2 359 352 342 338 342 344 348 347 351 347 344 343 347 341 344 335 341 351 340 342 327 331
264 251 289 341 32 24 13 8 6 11 359 350 343 342 346 349 349 349 347 347 346 351 346 340 345 345 343 348 351 343 329 332
249 234 273 18 58 43 16 10 7 10 1 351 350 350 348 351 350 347 341 348 354 359 349 351 343 341 346 346 353 338 338 334
230 208 309 63 103 56 20 1 8 1 357 358 351 354 349 349 349 342 348 350 357 1 354 339 349 344 344 350 342 345 342 330
207 197 251 118 90 43 7 358 360 359 357 357 356 356 352 350 350 346 346 351 358 356 347 345 355 353 351 347 339 349 347 340
200 206 185 114 81 31 3 356 352 358 354 355 358 359 356 351 348 348 354 348 348 355 350 344 352 357 346 347 349 351 349 345
202 190 96 122 94 31 3 352 350 356 353 354 1 2 358 353 351 354 360 352 342 358 348 350 353 354 352 350 352 354 354 353
191 165 108 118 91 39 7 347 356 358 354 357 3 2 1 355 352 356 359 357 348 356 352 358 357 353 355 354 359 1 0 359
176 154 123 125 94 43 8 356 1 358 0 6 4 2 2 356 358 1 1 0 356 1 358 0 354 358 357 359 4 5 6 9
171 118 136 131 111 28 15 17 2 5 11 6 3 2 1 0 6 4 2 4 4 6 1 357 359 2 358 1 4 8 9 14
145 138 150 146 125 43 47 27 11 14 19 5 6 5 3 7 10 7 6 7 10 10 3 1 0 5 3 1 5 9 11 12
143 146 164 151 131 85 59 37 18 19 15 6 10 10 8 11 11 9 9 8 10 17 7 2 360 6 5 3 2 9 11 18
156 162 168 153 135 113 66 45 23 19 17 10 13 12 14 11 11 12 11 13 12 18 8 6 4 10 9 4 2 6 8 17
172 173 169 157 144 117 80 52 33 25 18 17 15 14 18 13 12 14 13 18 22 19 11 11 11 15 9 6 358 7 12 13
172 171 163 156 139 110 92 59 43 29 25 19 14 16 18 18 12 12 13 13 23 23 18 13 15 13 8 12 1 8 12 16
164 167 161 148 131 119 99 74 68 44 28 22 16 18 18 17 15 14 12 15 14 21 30 17 17 18 10 12 358 17 12 14
157 157 146 137 131 115 116 92 85 55 37 30 22 17 19 16 20 19 13 13 16 18 18 26 19 23 8 12 350 27 19 18